Weather Service Report


770 
ASUS43 KIND 291559
RWRIN 

WEATHER ROUNDUP FOR INDIANA
NATIONAL WEATHER SERVICE INDIANAPOLIS IN
1200 PM EDT FRI APR 29 2016

NOTE: "FAIR" INDICATES FEW OR NO CLOUDS BELOW 12,000 FEET WITH NO
SIGNIFICANT WEATHER AND/OR OBSTRUCTIONS TO VISIBILITY.

* - STATION DOES NOT REPORT WEATHER SUCH AS PRECIPITATION OR FOG.

+ - STATION NOT QUALITY CONTROLLED BY THE NATIONAL WEATHER SERVICE.
    USE DATA WITH CAUTION...ESPECIALLY DEWPOINT AND RELATIVE
    HUMIDITY OBSERVATIONS.

INZ001>003-010>013-019-020-291700-
NORTHWEST INDIANA
  
CITY           SKY/WX    TMP DP  RH WIND       PRES   REMARKS
GARY /AIRPORT/ CLOUDY    48  46  93 N12       30.10F FOG              
RENSSELAER +   CLOUDY    48  45  87 NW3       30.09R FOG              

$$

LMZ046-743>745-291700-
SOUTHERN LAKE MICHIGAN
  
STATION/POSITION TIME  TEMP    WIND        PRES    WAVE
                       AIR SEA DIR/SP/G            HT
                 (UTC) (F)     (DEG/KT/KT) (MB)    (FT)
BURNS HARBOR     1517   42     320/ 10/ 14 1020.0R
MICHIGAN CITY    1500   42     270/ 12/ 13   N/A

$$

INZ004-005-014>016-021>024-291700-
NORTH CENTRAL INDIANA
  
CITY           SKY/WX    TMP DP  RH WIND       PRES   REMARKS
ELKHART        CLOUDY    48  45  87 E3        30.08R                  
GOSHEN         CLOUDY    48  43  82 N3        30.06F                  
SOUTH BEND     CLOUDY    47  44  90 NW7       30.08R FOG              

$$

INZ006>009-017-018-025>027-291700-
NORTHEAST INDIANA
  
CITY           SKY/WX    TMP DP  RH WIND       PRES   REMARKS
ANGOLA *+      PTSUNNY   46  34  61 CALM      30.08R                  
FORT WAYNE     CLOUDY    49  44  83 CALM      30.07S                  

$$

INZ028-029-035-036-043>045-051>053-291700-
WEST CENTRAL INDIANA
  
CITY           SKY/WX    TMP DP  RH WIND       PRES   REMARKS
CRAWFORDSVL +  CLOUDY    53  49  87 N3        30.07F                  
GREENCASTLE +  PTSUNNY   57  52  82 N6        30.07F                  
LAFAYETTE      CLOUDY    51  46  83 NW6       30.08R HAZE             
TERRE HAUTE    CLOUDY    61  48  62 N7        30.06F                  

$$

INZ030>032-037>040-046>048-054>057-064-065-291700-
CENTRAL INDIANA
  
CITY           SKY/WX    TMP DP  RH WIND       PRES   REMARKS
ANDERSON       PTSUNNY   57  50  77 NW12      30.07R                  
COLUMBUS       MOSUNNY   63  52  67 NW9       30.06R                  
INDIANAPOLIS   PTSUNNY   59  47  64 NW8       30.05S                  
-EAGLE CREEK   CLOUDY    58  48  69 N7        30.05S                  
KOKOMO *+      CLOUDY    54  46  76 NW8       30.06R                  
SHELBYVILLE    PTSUNNY   62  48  60 W9        30.05S                  

$$

INZ033-034-041-042-049-050-058-059-291700-
EAST CENTRAL INDIANA
  
CITY           SKY/WX    TMP DP  RH WIND       PRES   REMARKS
MUNCIE         CLOUDY    57  48  72 NW12      30.05R                  

$$

INZ060-061-067>069-081>083-085>088-291700-
SOUTHWEST INDIANA
  
CITY           SKY/WX    TMP DP  RH WIND       PRES   REMARKS
EVANSVILLE     CLOUDY    64  49  57 NE8       30.05R                  
HUNTINGBURG *+ PTSUNNY   63  50  63 N6        30.06R                  

$$

INZ062-063-066-070>080-084-089>092-291700-
SOUTH CENTRAL AND SOUTHEAST INDIANA
  
CITY           SKY/WX    TMP DP  RH WIND       PRES   REMARKS
BLOOMINGTON    PTSUNNY   62  47  57 CALM      30.05F                  
MADISON *+     SUNNY     64  45  48 NW6       30.07F                  
SEYMOUR +      MOSUNNY   64  46  52 N3        30.05F                  

$$

  

Return to Home page


Western Regional Climate Center, wrcc@dri.edu